Track YAOGAN-30 E now! 10-day predictions YAOGAN-30 E is classified as:
1 43029U 17075B 21024.00482643 .00000197 00000-0 22916-4 0 9995 2 43029 34.9969 246.4290 0003719 123.1913 236.9155 14.89846471172516